STARLINK-2569, 48277

Orbit data source: Space-Track

STARLINK-2569, 48277 is a payload satellite owned by SpaceX/Seattle (US) in LEO that was launched on Thu, 29 Apr 2021 UTC via an FALCON 9 launch vehicle from the Air Force Eastern Test Range (AFETR). Payload-class satellites include a variety of spacecraft equipped with specific instruments for various scientific and technological missions. These include communications satellites like Starlink; space stations such as the ISS; scientific satellites like the Hubble; Earth observation satellites from companies like Planet Labs, Umbra, and HawkEye 360; GPS; miniature CubeSats for education and research; and military/defense satellites.

Loading next visibility...
Identifier
48277, 2021-036B
Orbit
LEO
Country
Flag of USUS
Related business
Manufacturer
SpaceX/Seattle
Mission
Operational Commercial Communications
Bus & Motor
STARLINK, Unknown motor
Mass
260 kg wet, ~248 kg dry
Launch date (UTC)
2021-04-29 (5 years ago)
Launch vehicle
FALCON 9
Launch site
Air Force Eastern Test Range (AFETR)
Object type
Payload
Rocket body
Debris
Shape & HBR
Box + 1 Pan, 10.1 m
Radar Cross Section
13.562 m², Large (>1 m²)

Expand to show TLE details & history
Last TLE update: 7 hours ago

TLE from 7 hours ago
0 STARLINK-2569
1 48277U 21036B   26095.41643375  .00073327  00000-0  27765-2 0  9996
2 48277  53.1288 247.7325 0002208 316.9840  43.0986 15.26278053273382
Epoch: 2026-04-05T09:59Z
TLE epoch observation values (Epoch: 2026-04-05T09:59:39.875Z)
Latitude
0.00002°
Longitude
-95.9058°
Altitude
486.739 km
Speed
7.624 km/s
True Right ascension
16h 30m 55s
True Declination
0° 00' 00"
Sunlit
Object was in full shadow at epoch
Visualization orbit readout
Latitude
Unknown
Longitude
Unknown
Altitude
Unknown
Speed
Unknown
Apparent Right ascension
Unknown
Apparent Declination
Unknown
Sunlit
N/A
Visualization observer readout
Local Sidereal Time
23:15:05
Azimuth
Unknown
Elevation
Unknown
Doppler factor
Unknown
Orbital elements
Apogee altitude
488.727 km
Perigee altitude
485.696 km
Semi-major axis
6,865.348 km
Eccentricity
0.00022
Inclination
53.1288°
RAAN
247.7325°
Arg. of periapsis
316.984°
True anomaly
43.11589°
Mean anomaly
43.0986°
Eccentric anomaly
43.10725°
Mean motion
3.81548 °/min
Orbital period
94.35 mins
BSTAR
0.0027765
Loading maneuver chart data...
Computing Atmospheric mass density...
Loading historical data...
Loading historical data...
Loading historical data...
Loading historical data...
Loading historical data...
Loading historical data...
Loading historical data...

Documentation

Showing up to 5 results
|